Regional Weather Roundup
Issued by NWS

Home | Current Version | Previous Version | Text Only | Print | Product List | Glossary Off
Versions: 1 2 3 4 5 6 7 8 9 10 11 12 13 14 15 16 17 18 19 20 21 22 23 24 25 26 27 28 29 30 31 32 33 34 35 36 37 38 39 40 41 42 43 44 45 46 47 48 49 50

000
ASUS43 KDMX 220301
RWRIA

WEATHER ROUNDUP FOR IOWA
NATIONAL WEATHER SERVICE DES MOINES IA
1000 PM CDT MON MAY 21 2018

NOTE: "FAIR" INDICATES FEW OR NO CLOUDS BELOW 12,000 FEET WITH NO
SIGNIFICANT WEATHER AND/OR OBSTRUCTIONS TO VISIBILITY.

* - THESE STATIONS ARE NOT NWS STATIONS...THUS NOT UNDER NWS
QUALITY CONTROL.  THEY ALSO DO NOT REPORT WEATHER SUCH
AS PRECIPITATION OR FOG.

IAZ001>003-012>014-020>022-031>034-043>046-220400-
   NORTHWEST IOWA

CITY           SKY/WX    TMP DP  RH WIND       PRES   REMARKS
CARROLL *      CLEAR    N/A N/A N/A CALM      29.99S
CHEROKEE *     PTCLDY    56  56 100 CALM      29.99R
DENISON *      CLEAR     59  57  94 CALM      30.01R
LE MARS *      CLEAR     61  57  88 CALM      29.98R
ORANGE CITY *  CLEAR     63  59  88 CALM      29.99R
SHELDON *      CLEAR     57  57 100 SE5       29.98R FOG
SIOUX CITY     CLOUDY    60  56  86 E7        29.98R
SPENCER        CLEAR     58  57  97 E6        29.99S FOG
STORM LAKE *   CLEAR     59  59 100 CALM      30.00R FOG
$$

IAZ055>058-069>071-079>083-090>094-220400-
   SOUTHWEST IOWA

CITY           SKY/WX    TMP DP  RH WIND       PRES   REMARKS
ATLANTIC *     PTCLDY    61  55  82 NE6       29.99R
AUDUBON *      CLEAR     57  54  88 CALM      30.02R
CLARINDA *       N/A     63  55  77 CALM      30.00S
COUNCIL BLFS * CLOUDY    64  64 100 E6        29.99R
CRESTON *      CLEAR     63  55  77 E6        30.02R
HARLAN  *      CLEAR     61  59  94 CALM      30.03R
LAMONI         CLEAR     63  59  87 S7        30.00R
RED OAK *      PTCLDY    64  55  72 NE5       29.99R
SHENANDOAH *   CLOUDY    66  55  68 CALM      29.98R
$$

IAZ047>049-059>061-072>074-084-220400-
   CENTRAL IOWA

CITY           SKY/WX    TMP DP  RH WIND       PRES   REMARKS
AMES           CLOUDY    63  60  90 NE3       30.00R
ANKENY *       CLOUDY    64  63  94 CALM      30.00R
BOONE *        CLOUDY    63  61  94 NE7       29.99R
CHARITON *     MOCLDY    64  63  94 E5        30.00R
DES MOINES     CLOUDY    68  61  78 E5        29.99R
GRINNELL*      CLEAR     60  58  94 CALM      30.02R
KNOXVILLE *    PTCLDY    64  63  94 E5        29.98R
MARSHALLTOWN   CLEAR     60  60 100 E5        30.00R
NEWTON *       CLOUDY    63  61  94 E5        30.00R
PELLA *        CLEAR     63  60  91 CALM      30.01R
PERRY *        FAIR      62  58  85 W6        29.99S
$$

IAZ004>006-015-016-023>025-035-036-220400-
   NORTH CENTRAL IOWA

CITY           SKY/WX    TMP DP  RH WIND       PRES   REMARKS
ALGONA *       CLOUDY    61  59  94 CALM      30.00R FOG
CLARION *      CLOUDY    63  59  88 CALM      30.00R
ESTHERVILLE    CLOUDY    58  58 100 CALM      29.99S
FORT DODGE *   MOCLDY    60  59  96 E5        30.00R
MASON CITY     MOCLDY    58  56  93 CALM      30.00F
FOREST CITY *  CLOUDY    59  59 100 CALM      29.99F
WEBSTER CITY * CLOUDY    63  61  94 NE3       29.98R
IOWA FALLS *   MOCLDY    61  59  94 CALM      30.01R
$$

IAZ007>011-017>019-026>030-037>042-050>054-066-220400-
   NORTHEAST IOWA

CITY           SKY/WX    TMP DP  RH WIND       PRES   REMARKS
CEDAR RAPIDS   CLOUDY    62  59  90 N3        30.00R
CHARLES CITY * CLOUDY    59  57  94 CALM      30.01R
CLINTON *      MOCLDY   N/A N/A N/A CALM      29.99R FOG
DECORAH *      FOG       57  57 100 CALM      29.99R VSB 1
DUBUQUE        FOG       60  58  92 NE3       29.99R VSB 1/4
MONTICELLO *   CLOUDY    63  61  94 W6        30.00R
OELWEIN *      CLOUDY    59  59 100 NW3       30.01R
WATERLOO       CLOUDY    60  59  96 CALM      30.00R
$$

IAZ064-065-067-068-078-220400-
   EAST CENTRAL IOWA

CITY           SKY/WX    TMP DP  RH WIND       PRES   REMARKS
DAVENPORT      FAIR      62  61  96 W6        30.01R FOG
IOWA CITY      CLOUDY    64  59  83 N7        30.01R
MUSCATINE *    CLOUDY    64  61  88 NW6       30.01R
QUAD CITIES    FAIR      64  62  93 CALM      29.98R FOG
$$

IAZ062-063-075>077-085>089-095>099-220400-
   SOUTHEAST IOWA

CITY           SKY/WX    TMP DP  RH WIND       PRES   REMARKS
BURLINGTON     PTCLDY    67  61  81 N7        29.99R
FAIRFIELD *    CLEAR     63  61  94 CALM      30.00R
FORT MADISON * CLEAR     64  63  94 N5        30.00S
KEOKUK *       CLOUDY    68  61  77 N3        29.98R
OSKALOOSA *    FAIR      61  60  96 E5        30.01R
CENTERVILLE *    N/A     64  64 100 CALM      30.02R
OTTUMWA        CLEAR     64  60  87 E5        30.00R
WASHINGTON *   CLEAR     63  61  94 N5        30.01R
$$

ABBREVIATIONS USED IN REMARKS
   TC - TEMPERATURES IN CELSIUS
  WCI - WIND CHILL INDEX
   HX - HEAT INDEX
  VSB - VISIBILITY
$$





USA.gov is the U.S. government's official web portal to all federal, state and local government web resources and services.